Weather History for EGUL - October, 2011

Change the Weather History Date:

Sunday, October 16, 2011

  Actual Average (EGSC) Record (EGSC)
Temperature  
Mean Temperature 48 °F -  
Max Temperature 63 °F 57 °F 64 °F (2005)
Min Temperature 33 °F 45 °F 37 °F (2003)
Degree Days  
Heating Degree Days 16    
Moisture  
Dew Point 45 °F    
Average Humidity 91    
Maximum Humidity 100    
Minimum Humidity 70    
Precipitation  
Precipitation 0.00 in - - ()
Sea Level Pressure  
Sea Level Pressure 30.17 in    
Wind  
Wind Speed 2 mph ()    
Max Wind Speed 9 mph    
Max Gust Speed -    
Visibility 5.6 miles    
Events      
Averages and records for this station are not official NWS values.
T = Trace of Precipitation, MM = Missing Value Source: Averaged Metar Reports

Daily Weather History Graph

Daily Weather History Graph

Search for Another Location

Airport or City:

Trip Planner

Search our weather history database for the weather conditions in past years. The results will help you decide how hot, cold, wet, or windy it might be!

Date:

Astronomy

Oct. 16, 2011 Rise Set
Actual Time 7:24 AM BST 6:01 PM BST
Civil Twilight 6:49 AM BST 6:36 PM BST
Nautical Twilight 6:10 AM BST 7:15 PM BST
Astronomical Twilight 5:30 AM BST 7:55 PM BST
Moon 7:59 PM BST (10/16) 12:02 PM BST (10/16)
Length of Visible Light 11h 46m
Length of Day
10h 37m
Waning Gibbous, 84% of the Moon is Illuminated
Oct 16
Waning Gibbous
Oct 20
Last Quarter
Oct 26
New
Nov 2
First Quarter
Nov 10
Full

Hourly Weather History & Observations

Time (BST) Temp. Windchill Dew Point Humidity Pressure Visibility Wind Dir Wind Speed Gust Speed Precip Events Conditions
12:55 AM 40.6 °F - 40.6 °F 100% 30.21 in 6.2 mi Calm Calm - N/A   Clear
1:55 AM 38.3 °F 35.9 °F 38.3 °F 100% 30.20 in 6.2 mi SE 3.5 mph - N/A   Clear
2:55 AM 37.0 °F - 37.0 °F 100% 30.19 in 6.2 mi Calm Calm - N/A   Clear
4:55 AM 36.0 °F - 36.0 °F 100% 30.18 in 6.2 mi Calm Calm - N/A   Clear
5:55 AM 34.3 °F - 34.3 °F 100% 30.18 in 6.2 mi Calm Calm - N/A   Clear
6:55 AM 33.6 °F 30.6 °F 33.6 °F 100% 30.17 in 5.6 mi SE 3.5 mph - N/A   Clear
7:08 AM 33.8 °F - 33.8 °F 100% 30.17 in 2.5 mi Calm Calm - N/A   Clear
7:14 AM 33.8 °F - 33.8 °F 100% 30.17 in 3.1 mi Calm Calm - N/A   Clear
7:29 AM 33.8 °F - 33.8 °F 100% 30.18 in 2.5 mi Calm Calm - N/A   Clear
7:36 AM 33.8 °F - 33.8 °F 100% 30.18 in 3.1 mi Calm Calm - N/A   Clear
7:55 AM 34.2 °F - 34.2 °F 100% 30.19 in 6.2 mi Calm Calm - N/A   Clear
8:55 AM 41.9 °F - 41.9 °F 100% 30.19 in 6.2 mi Calm Calm - N/A   Clear
9:55 AM 50.7 °F - 50.7 °F 100% 30.19 in 6.2 mi SW 4.6 mph - N/A   Clear
12:55 PM 60.4 °F - 51.6 °F 73% 30.18 in 6.2 mi SW 8.1 mph - N/A   Clear
1:55 PM 62.4 °F - 52.3 °F 70% 30.17 in 6.2 mi West 9.2 mph - N/A   Partly Cloudy
2:48 PM 62.6 °F - 53.6 °F 72% 30.16 in 6.2 mi WSW 8.1 mph - N/A   Mostly Cloudy
2:55 PM 62.6 °F - 54.1 °F 74% 30.16 in 6.2 mi WSW 5.8 mph - N/A   Mostly Cloudy
3:07 PM 64.4 °F - 55.4 °F 73% 30.16 in 6.2 mi WSW 9.2 mph - N/A   Scattered Clouds
3:12 PM 62.6 °F - 53.6 °F 72% 30.16 in 6.2 mi SW 8.1 mph - N/A   Mostly Cloudy
3:21 PM 62.6 °F - 55.4 °F 77% 30.16 in 6.2 mi WSW 8.1 mph - N/A   Scattered Clouds
3:55 PM 62.6 °F - 54.7 °F 75% 30.16 in 6.2 mi WSW 8.1 mph - N/A   Scattered Clouds
4:55 PM 61.0 °F - 55.8 °F 83% 30.17 in 6.2 mi SW 5.8 mph - N/A   Overcast
5:55 PM 59.9 °F - 56.5 °F 88% 30.17 in 6.2 mi SW 4.6 mph - N/A   Overcast
7:55 PM 57.0 °F - 56.7 °F 99% 30.17 in 6.2 mi Calm Calm - N/A   Overcast
9:55 PM 52.0 °F - 52.0 °F 100% 30.17 in 5.0 mi Calm Calm - N/A   Clear
11:55 PM 49.5 °F - 49.5 °F 100% 30.15 in 6.2 mi SW 4.6 mph - N/A   Clear